[[{"header":{"parameterUnit":"m.s-1","parameterCategory":1,"la1":30.2991,"la2":30.254,"lo1":-89.0895,"lo2":-89.0444,"dy":0.0017,"dx":0.0017,"nx":28,"ny":28,"refTime":"2023-09-29T09:00:00:Z","depth":0,"parameterNumber":2,"parameterNumberName":"U-component_of_WINDS"},"data":[0,0,0,0,0,0,0,0,0,0,0,0,0,0,0,0,0,0,0,0,0,0,0,0,0,0,0,0,0,0,0,0,0,0,0,0,0,0,0,0,0,0,0,0,0,0,0,0,0,0,0,0,0,0,0,0,0,0,-1.4596,-1.4596,0,-1.4586,-1.4586,-1.4586,-1.4495,-1.4492,-1.449,-1.4488,-1.4482,-1.4484,-1.4486,0,0,0,0,0,0,0,0,0,0,0,0,0,-1.4543,-1.4544,-1.4596,-1.4596,-1.4596,-1.4586,-1.4586,-1.4586,-1.4495,-1.4492,-1.4489,-1.4487,-1.4481,-1.4484,-1.4486,0,0,0,0,0,0,0,0,0,0,0,0,0,-1.4553,-1.4545,-1.4596,-1.4549,-1.4545,-1.4586,-1.4586,-1.4586,-1.4496,-1.4492,-1.4489,-1.4486,-1.4481,-1.4483,-1.4486,-1.4573,0,0,-1.4495,-1.4497,0,0,0,0,0,0,0,0,-1.4552,-1.4555,-1.4556,-1.4553,-1.4548,-1.4538,-1.4565,-1.4582,-1.4496,-1.4515,-1.4488,-1.4484,-1.4504,-1.4505,-1.451,-1.4573,-1.4572,-1.4496,-1.4497,-1.4499,-1.4499,0,0,0,0,0,0,0,-1.4552,-1.4555,-1.4592,-1.4557,-1.4551,-1.4531,-1.4528,-1.4568,-1.4529,-1.4513,-1.4506,-1.4506,-1.4501,-1.4508,-1.4509,-1.4572,-1.4495,-1.4498,-1.45,-1.4501,-1.4709,-1.4713,0,0,0,0,0,0,-1.4557,-1.4555,-1.4593,-1.4592,-1.4542,-1.4535,-1.4532,-1.4545,-1.4528,-1.4522,-1.4509,-1.4502,-1.4504,-1.4506,-1.4509,-1.4612,-1.4499,-1.4501,-1.4503,-1.4705,-1.471,-1.4714,0,0,0,0,0,0,-1.4556,-1.4561,-1.4593,-1.4572,-1.4574,-1.4539,-1.4554,-1.4546,-1.4553,-1.4525,-1.4518,-1.4523,-1.4502,-1.4505,-1.4558,-1.461,-1.4503,-1.4505,-1.4701,-1.4707,-1.4712,-1.4817,0,0,0,0,0,0,-1.4555,-1.4561,-1.4593,-1.4573,-1.4576,-1.4641,-1.4557,-1.4549,-1.4558,-1.4548,-1.4536,-1.4531,-1.4499,-1.4554,-1.4561,-1.4613,-1.4508,-1.4696,-1.4703,-1.471,-1.4809,-1.4826,-1.484,0,0,0,0,0,-1.4553,-1.4623,-1.4595,-1.46,-1.4613,-1.4644,-1.4646,-1.4607,-1.4562,-1.4595,-1.4577,-1.4531,-1.4603,-1.456,-1.4567,-1.4621,-1.4693,-1.4701,-1.4709,-1.4802,-1.4823,-1.484,0,0,0,0,0,0,-1.4651,-1.4619,-1.4588,-1.4652,-1.4652,-1.4629,-1.4668,-1.4629,-1.4642,-1.4633,-1.4585,-1.4583,-1.4645,-1.4637,-1.4591,-1.4705,-1.464,-1.465,-1.4708,-1.4727,-1.4743,-1.4745,-1.451,0,0,0,0,0,-1.4679,-1.4705,-1.4677,-1.4737,-1.4738,-1.4704,-1.4715,-1.4685,-1.4683,-1.4683,-1.4669,-1.467,-1.4693,-1.4709,-1.4728,-1.4807,-1.4805,-1.4847,-1.4863,-1.4875,-1.4886,-1.4931,-1.495,-1.4742,-1.4741,-1.4741,0,0,-1.474,-1.4726,-1.4745,-1.4756,-1.4752,-1.4783,-1.4704,-1.4738,-1.4761,-1.4688,-1.4739,-1.4729,-1.4727,-1.4794,-1.4823,-1.479,-1.4943,-1.4886,-1.4897,-1.49,-1.4941,-1.4961,-1.4979,-1.4747,-1.4746,-1.4745,0,0,-1.4865,-1.4856,-1.4906,-1.4904,-1.4898,-1.4875,-1.4887,-1.4871,-1.4861,-1.491,-1.4857,-1.4884,-1.4924,-1.4926,-1.4932,-1.5061,-1.5021,-1.5068,-1.5151,-1.5195,-1.5212,-1.5226,-1.5276,-1.5293,-1.5078,-1.5079,-1.5079,0,-1.4941,-1.4983,-1.4938,-1.4977,-1.4985,-1.4919,-1.4972,-1.4971,-1.4974,-1.4982,-1.4944,-1.4994,-1.4988,-1.5057,-1.5088,-1.5094,-1.511,-1.5071,-1.5212,-1.5227,-1.5239,-1.5286,-1.5305,-1.5085,-1.5084,-1.5083,-1.5083,0,-1.5079,-1.5109,-1.515,-1.5154,-1.5166,-1.5212,-1.5175,-1.5194,-1.5163,-1.5145,-1.5198,-1.5188,-1.5206,-1.5219,-1.5189,-1.5285,-1.5265,-1.522,-1.5155,-1.5266,-1.531,-1.5327,-1.5093,-1.5091,-1.5089,-1.5088,0,0,-1.5266,-1.5244,-1.5261,-1.5263,-1.5252,-1.5276,-1.5319,-1.5336,-1.5354,-1.5358,-1.5396,-1.5432,-1.5391,-1.5399,-1.5369,-1.5407,-1.5514,-1.5358,-1.5357,-1.5391,-1.5623,-1.5659,-1.568,-1.5486,-1.5489,-1.5492,-1.5624,0,-1.539,-1.5462,-1.5424,-1.5502,-1.5532,-1.547,-1.5509,-1.5508,-1.5493,-1.5517,-1.5499,-1.5527,-1.547,-1.5474,-1.5509,-1.5494,-1.5561,-1.5483,-1.5525,-1.5527,-1.553,-1.5702,-1.5739,-1.5865,-1.5641,-1.5643,-1.5645,0,-1.5544,-1.5555,-1.5636,-1.5623,-1.5634,-1.5669,-1.5683,-1.5705,-1.5704,-1.569,-1.5699,-1.5661,-1.5706,-1.5639,-1.5702,-1.565,-1.5665,-1.566,-1.5664,-1.5669,-1.5595,-1.5715,-1.5904,-1.5924,-1.5671,-1.5669,-1.5667,0,-1.5678,-1.5712,-1.5766,-1.5769,-1.5753,-1.578,-1.5776,-1.5771,-1.5784,-1.5796,-1.5805,-1.5823,-1.5833,-1.5849,-1.5818,-1.5771,-1.5887,-1.5816,-1.588,-1.5881,-1.5909,-1.5909,-1.6106,-1.5913,-1.5913,-1.5913,-1.5912,0,-1.5822,-1.5876,-1.5826,-1.586,-1.5918,-1.5874,-1.5934,-1.5923,-1.592,-1.5952,-1.5899,-1.5931,-1.5886,-1.5915,-1.589,-1.5949,-1.5953,-1.5945,-1.5939,-1.5952,-1.5954,-1.5963,-1.5955,-1.5917,-1.5916,-1.5915,-1.5915,0,-1.5982,-1.595,-1.6006,-1.5987,-1.5984,-1.6028,-1.6013,-1.6045,-1.6025,-1.6067,-1.6075,-1.6045,-1.6076,-1.6046,-1.6074,-1.6058,-1.6138,-1.6117,-1.6138,-1.6134,-1.62,-1.6196,-1.6414,-1.6442,-1.6228,-1.623,-1.6232,0,-1.6078,-1.6118,-1.6103,-1.6121,-1.6119,-1.6147,-1.6161,-1.6119,-1.6135,-1.6138,-1.6171,-1.6197,-1.6216,-1.6269,-1.6251,-1.6274,-1.6256,-1.633,-1.6259,-1.6272,-1.6261,-1.6261,-1.6266,-1.6346,-1.6349,-1.6351,-1.6352,0,-1.6253,-1.6236,-1.6256,-1.6272,-1.6289,-1.63,-1.6307,-1.6325,-1.6282,-1.6304,-1.6334,-1.6349,-1.6379,-1.6407,-1.6424,-1.6422,-1.6382,-1.6375,-1.6391,-1.6407,-1.6419,-1.6417,-1.6182,-1.6371,-1.6369,-1.6367,-1.6366,-1.6366,-1.6386,-1.642,-1.6415,-1.6441,-1.6442,-1.645,-1.648,-1.6464,-1.6488,-1.6509,-1.6482,-1.6521,-1.6522,-1.6541,-1.6544,-1.6575,-1.6544,-1.6567,-1.6574,-1.6581,-1.6592,-1.6411,-1.6578,-1.6577,-1.6577,-1.6576,-1.6576,0,-1.6561,-1.6556,-1.6579,-1.6591,-1.6612,-1.6569,-1.6576,-1.6597,-1.6631,-1.6634,-1.6654,-1.6691,-1.6718,-1.6703,-1.6727,-1.6756,-1.6738,-1.6764,-1.6763,-1.6764,-1.6617,-1.6602,-1.6778,-1.6778,-1.6778,-1.6778,-1.6778,-1.6778,-1.6655,-1.6711,-1.6694,-1.6751,-1.6744,-1.6781,-1.6789,-1.6797,-1.68,-1.6843,-1.6865,-1.6854,-1.6851,-1.6875,-1.69,-1.6895,-1.6908,-1.6941,-1.693,-1.6794,-1.6774,-1.6755,-1.6741,-1.6943,-1.6943,-1.7075,-1.7076,-1.7077]},{"header":{"parameterUnit":"m.s-1","parameterCategory":1,"la1":30.2991,"la2":30.254,"lo1":-89.0895,"lo2":-89.0444,"dy":0.0017,"dx":0.0017,"nx":28,"ny":28,"refTime":"2023-09-29T09:00:00:Z","depth":0,"parameterNumber":3,"parameterNumberName":"V-component_of_WINDS"},"data":[0,0,0,0,0,0,0,0,0,0,0,0,0,0,0,0,0,0,0,0,0,0,0,0,0,0,0,0,0,0,0,0,0,0,0,0,0,0,0,0,0,0,0,0,0,0,0,0,0,0,0,0,0,0,0,0,0,0,1.9303,1.9303,0,1.9311,1.9311,1.9311,1.9311,1.931,1.931,1.931,1.9318,1.9318,1.9319,0,0,0,0,0,0,0,0,0,0,0,0,0,1.9287,1.9288,1.9303,1.9303,1.9303,1.9311,1.9311,1.9312,1.9311,1.931,1.931,1.931,1.9318,1.9318,1.9319,0,0,0,0,0,0,0,0,0,0,0,0,0,1.9295,1.9288,1.9303,1.9304,1.9304,1.9311,1.9311,1.9312,1.9311,1.931,1.931,1.931,1.9318,1.9318,1.9319,1.9326,0,0,1.932,1.9321,0,0,0,0,0,0,0,0,1.9294,1.9295,1.9304,1.9304,1.9304,1.931,1.9309,1.9316,1.9311,1.9308,1.931,1.931,1.9315,1.9316,1.9318,1.9326,1.9326,1.932,1.9321,1.9321,1.9321,0,0,0,0,0,0,0,1.9294,1.9295,1.9306,1.9304,1.9304,1.9304,1.9305,1.931,1.9313,1.9308,1.9308,1.9309,1.9316,1.9318,1.9318,1.9327,1.932,1.9321,1.9321,1.9321,1.9341,1.9341,0,0,0,0,0,0,1.9293,1.9295,1.9306,1.9307,1.9299,1.9304,1.9305,1.9308,1.9313,1.9313,1.9309,1.9309,1.9317,1.9318,1.9319,1.9327,1.9321,1.9321,1.9322,1.9341,1.9341,1.9341,0,0,0,0,0,0,1.9293,1.9294,1.9306,1.9301,1.9302,1.9305,1.9308,1.9308,1.931,1.9314,1.9314,1.9311,1.9317,1.9318,1.9324,1.9327,1.9322,1.9322,1.9341,1.9341,1.9341,1.9344,0,0,0,0,0,0,1.9292,1.9294,1.9297,1.9301,1.9302,1.9311,1.9308,1.9309,1.9311,1.9311,1.9315,1.9316,1.9317,1.9323,1.9325,1.9328,1.9322,1.934,1.9341,1.9341,1.9343,1.9344,1.9345,0,0,0,0,0,1.9292,1.9297,1.9297,1.9298,1.9306,1.9311,1.9312,1.9313,1.9312,1.9314,1.9316,1.9315,1.9327,1.9324,1.9325,1.9329,1.934,1.9341,1.9341,1.9343,1.9344,1.9345,0,0,0,0,0,0,1.9293,1.9297,1.9297,1.9304,1.9307,1.9311,1.9314,1.9314,1.9318,1.9318,1.9319,1.932,1.9326,1.9328,1.9325,1.9336,1.9333,1.9334,1.9334,1.9335,1.9336,1.9335,1.9323,0,0,0,0,0,1.9294,1.9298,1.9302,1.9307,1.9309,1.9312,1.9314,1.9315,1.9318,1.932,1.9322,1.9326,1.933,1.9333,1.9337,1.9344,1.9345,1.9347,1.9348,1.9348,1.9349,1.9353,1.9354,1.9343,1.9343,1.9343,0,0,1.9296,1.9299,1.9301,1.9308,1.931,1.9315,1.9313,1.9317,1.9321,1.932,1.9326,1.9328,1.9332,1.9339,1.9342,1.9341,1.9352,1.9349,1.9349,1.935,1.9354,1.9355,1.9355,1.9343,1.9343,1.9343,0,0,1.9302,1.9304,1.9309,1.9312,1.9317,1.9318,1.932,1.9324,1.9325,1.9331,1.9331,1.9335,1.9343,1.9346,1.9348,1.9356,1.9356,1.9358,1.9361,1.9365,1.9366,1.9366,1.9369,1.937,1.9358,1.9358,1.9358,0,1.9303,1.931,1.9312,1.9317,1.9319,1.932,1.9325,1.9328,1.9333,1.9335,1.9334,1.9343,1.9346,1.9353,1.9356,1.9358,1.9359,1.9357,1.9365,1.9366,1.9367,1.937,1.9371,1.9358,1.9358,1.9358,1.9358,0,1.9312,1.9317,1.932,1.9326,1.9329,1.9334,1.9337,1.934,1.9341,1.9342,1.9349,1.9352,1.9357,1.9359,1.936,1.9367,1.9366,1.9365,1.9362,1.9368,1.9371,1.9372,1.9359,1.9359,1.9358,1.9358,0,0,1.9318,1.9325,1.9326,1.9329,1.9334,1.9338,1.9343,1.9348,1.9351,1.9355,1.9359,1.9366,1.9365,1.9368,1.9369,1.9372,1.9379,1.9371,1.9371,1.9372,1.9387,1.9387,1.9388,1.9379,1.9379,1.9379,1.9386,0,1.9324,1.9333,1.9335,1.9343,1.9348,1.9348,1.9353,1.9357,1.9359,1.9363,1.9366,1.937,1.9369,1.9371,1.9374,1.9377,1.9381,1.9377,1.9382,1.9383,1.9381,1.9389,1.939,1.9396,1.9387,1.9387,1.9387,0,1.9332,1.9337,1.9345,1.935,1.9352,1.9356,1.9361,1.9365,1.937,1.9371,1.9375,1.9376,1.9381,1.9379,1.9386,1.9383,1.9386,1.9388,1.9388,1.9388,1.9385,1.9389,1.9399,1.9399,1.9389,1.9389,1.9389,0,1.9335,1.9344,1.935,1.9352,1.9358,1.9361,1.9364,1.9368,1.9371,1.9376,1.9378,1.9383,1.9386,1.939,1.9392,1.939,1.9399,1.9397,1.9401,1.9401,1.9402,1.9402,1.9411,1.9405,1.9405,1.9405,1.9404,0,1.9342,1.9347,1.9351,1.9355,1.9361,1.9363,1.9369,1.9372,1.9376,1.938,1.9381,1.9385,1.9388,1.9393,1.9395,1.9401,1.9402,1.9403,1.9404,1.9403,1.9403,1.9404,1.9404,1.9405,1.9405,1.9405,1.9405,0,1.9346,1.9349,1.9356,1.9361,1.9363,1.9367,1.9372,1.9375,1.9378,1.9383,1.9385,1.9389,1.9394,1.9397,1.9404,1.9405,1.9412,1.9412,1.9411,1.9411,1.9414,1.9413,1.9424,1.9426,1.9418,1.9418,1.9419,0,1.935,1.9353,1.936,1.9363,1.9365,1.937,1.9374,1.9377,1.938,1.9386,1.9389,1.9395,1.9399,1.9408,1.9411,1.9417,1.9417,1.942,1.9418,1.9417,1.9417,1.9416,1.9416,1.9421,1.9421,1.9421,1.9421,0,1.9356,1.9357,1.9362,1.9367,1.9371,1.9376,1.938,1.9383,1.9386,1.939,1.9396,1.94,1.9407,1.9412,1.9418,1.9421,1.9421,1.9422,1.9423,1.9422,1.942,1.9421,1.9411,1.9421,1.9421,1.9421,1.9421,1.9421,1.9359,1.9363,1.9368,1.9373,1.9377,1.9381,1.9385,1.9389,1.9393,1.94,1.9401,1.9407,1.9412,1.942,1.9423,1.9428,1.9427,1.9428,1.9429,1.9429,1.9429,1.942,1.9429,1.9429,1.9429,1.9429,1.9429,0,1.9365,1.9369,1.9374,1.938,1.9384,1.9385,1.939,1.9394,1.9399,1.9404,1.9408,1.9415,1.9421,1.9425,1.943,1.9433,1.9434,1.9435,1.9434,1.9435,1.9429,1.9428,1.9434,1.9434,1.9434,1.9434,1.9434,1.9434,1.9369,1.9375,1.9377,1.9386,1.9389,1.9395,1.9398,1.9402,1.9406,1.9413,1.9418,1.9421,1.9425,1.9431,1.9437,1.9438,1.944,1.944,1.9441,1.9436,1.9435,1.9435,1.9433,1.9441,1.9441,1.9447,1.9447,1.9447]}]]